Location: ????????
(55.6189°N, 38.3031°E)
Time: 12:43:32
(UTC+00:00)

PSLV R/B - Visible Passes

Search period start: 18 February 2020 00:00
Search period end: 28 February 2020 00:00
Orbit: 503 x 581 km, 97.8° (Epoch: 17 February)

Date Brightness Start Highest point End Pass type
(mag) Time Alt. Az. Time Alt. Az. Time Alt. Az.
18 Feb 5.9 02:05:22 10° NE 02:08:33 26° E 02:11:45 10° SSE visible
18 Feb 4.2 03:39:45 10° N 03:43:13 38° WNW 03:46:43 10° SW visible
19 Feb 6.1 01:58:42 10° NE 02:01:42 23° E 02:04:45 10° SSE visible
19 Feb 4.0 03:32:54 10° N 03:36:28 44° WNW 03:40:03 10° SW visible
20 Feb 6.4 01:52:03 10° NE 01:54:52 20° E 01:57:42 10° SE visible
20 Feb 3.8 03:26:04 10° N 03:29:42 51° WNW 03:33:22 10° SW visible
21 Feb 6.6 01:45:26 10° NE 01:48:01 17° E 01:50:36 10° SE visible
21 Feb 3.7 03:19:14 10° N 03:22:56 60° WNW 03:26:40 10° SSW visible
22 Feb 6.8 01:38:54 10° NE 01:41:09 15° E 01:43:27 10° SE visible
22 Feb 3.6 03:12:25 10° NNE 03:16:09 70° WNW 03:19:57 10° SSW visible
23 Feb 6.9 01:32:25 10° ENE 01:34:18 13° E 01:36:11 10° ESE visible
23 Feb 3.6 03:05:37 10° NNE 03:09:22 82° WNW 03:13:11 10° SSW visible
24 Feb 7.0 01:26:05 10° ENE 01:27:26 12° E 01:28:46 10° ESE visible
24 Feb 3.7 02:58:48 10° NNE 03:02:35 86° ESE 03:06:26 10° SSW visible
25 Feb 3.9 02:52:01 10° NNE 02:55:48 74° ESE 02:59:38 10° S visible
26 Feb 4.2 02:45:13 10° NNE 02:49:00 63° ESE 02:52:49 10° S visible
27 Feb 4.5 02:38:27 10° NNE 02:42:11 54° ESE 02:45:59 10° S visible
